Regional Weather Roundup
Issued by NWS

Home | Current Version | Previous Version | Graphics & Text | Print | Product List | Glossary On
Versions: 1 2 3 4 5 6 7 8 9 10 11 12 13 14 15 16 17 18 19 20 21 22 23 24 25 26 27 28 29 30 31 32 33 34 35 36 37 38 39 40 41 42 43 44 45 46 47 48 49 50
000
ASUS45 KCYS 021210
RWRWY

WYOMING REGIONAL WEATHER ROUNDUP
NATIONAL WEATHER SERVICE CHEYENNE WY
600 AM MDT THU JUL 02 2015

NOTE:  "FAIR" INDICATES FEW OR NO CLOUDS BELOW 12,000 FEET
WITH NO SIGNIFICANT WEATHER AND/OR OBSTRUCTIONS TO VISIBILITY.

WYZ001-021300-
YELLOWSTONE NATIONAL PARK

CITY           SKY/WX    TMP DP  RH WIND       PRES   REMARKS
LK YELLOWSTONE   N/A     44  39  82 CALM      30.38R
6HR MIN TEMP:  43; 6HR MAX TEMP:  55;

W YELLOWSTONE  NOT AVBL

$$
WYZ002>013-054>058-071-098>099-021300-
NORTHERN WYOMING

CITY           SKY/WX    TMP DP  RH WIND       PRES   REMARKS
JACKSON        FAIR      50  45  81 N5        30.26R
CODY           FAIR      64  45  48 NW6       30.22S
GREYBULL       FAIR      67  52  58 NW7       30.13R
6HR MIN TEMP:  67; 6HR MAX TEMP:  75;

WORLAND        FAIR      61  53  75 SW8       30.15S
6HR MIN TEMP:  61; 6HR MAX TEMP:  72;

SHERIDAN       FAIR      56  52  86 SW5       30.17R
6HR MIN TEMP:  55; 6HR MAX TEMP:  67;

BUFFALO        FAIR      59  53  80 NW9       30.22R
6HR MIN TEMP:  57; 6HR MAX TEMP:  64;

GILLETTE       MOCLDY    57  54  89 W3        30.16S
6HR MIN TEMP:  57; 6HR MAX TEMP:  62;

NEWCASTLE      NOT AVBL

$$
WYZ014>020-022>026-101>103-021300-
CENTRAL WYOMING

CITY           SKY/WX    TMP DP  RH WIND       PRES   REMARKS
BIG PINEY      FAIR      50  38  63 E3        30.29R
6HR MIN TEMP:  48; 6HR MAX TEMP:  64;

PINEDALE       PTSUNNY   50  43  76 W5        30.30R
DUBOIS         NOT AVBL
LANDER         FAIR      60  53  77 W8        30.25R
6HR MIN TEMP:  60; 6HR MAX TEMP:  72;

RIVERTON       FAIR      61  53  75 CALM      30.24R
6HR MIN TEMP:  60; 6HR MAX TEMP:  72;

CASPER         FAIR      55  54  96 NW7       30.23R
6HR MIN TEMP:  55; 6HR MAX TEMP:  67; 6HR PCP: TRACE;

DOUGLAS        FAIR      60  59  96 CALM      30.21R
6HR MIN TEMP:  60; 6HR MAX TEMP:  66; 6HR PCP:  0.08;


$$
WYZ021-027>030-104>119-021300-
SOUTHERN WYOMING

CITY           SKY/WX    TMP DP  RH WIND       PRES   REMARKS
EVANSTON       FAIR      61  41  47 S5        30.28F
6HR MIN TEMP:  56; 6HR MAX TEMP:  71;

FORT BRIDGER   SUNNY     59  41  51 W8        30.30S
ROCK SPRINGS   FAIR      59  49  69 S3        30.27R
6HR MIN TEMP:  59; 6HR MAX TEMP:  68;

RAWLINS        FAIR      57  53  86 E9        30.29R
6HR MIN TEMP:  55; 6HR MAX TEMP:  60;

LARAMIE        MOCLDY    54  51  90 S6        30.33S
6HR MIN TEMP:  51; 6HR MAX TEMP:  57; 6HR PCP: TRACE;

CHEYENNE       CLOUDY    54  53  97 W7        30.29R
6HR MIN TEMP:  54; 6HR MAX TEMP:  64; 6HR PCP:  0.01;

TORRINGTON     FAIR      59  57  93 W6        30.14F
6HR MIN TEMP:  59; 6HR MAX TEMP:  69; 6HR PCP:  0.09;


$$



USA.gov is the U.S. government's official web portal to all federal, state and local government web resources and services.